IRIDIUM 68 [+]

Last updated on Thu May 10 2018 00:19:49 GMT+0000 (Coordinated Universal Time)

1 25291U 98021G 18129.41946666 .00000120 00000-0 35967-4 0 9999 2 25291 86.3950 87.6835 0002244 84.1894 275.9557 14.34215013 51768
UTC large
Height (km)
Speed (km/s)
/
Latitude / Longitude
Inclination (degrees)
Orbital Period (minutes)
Azimuth
Elevation
Range (km)
Doppler Factor

Next 0 passes for location: London (51.5072 / 0.1276)

Sorry there are no passes over London.